Location: El Abasto
(10.3790°N, 67.5897°W)
Time: 18:40:16
(UTC+00:00)

Cosmos 1953 Rocket - Pass Details

Date: 19 May 2024
Orbit: 601 x 631 km, 82.5° (Epoch: 11 June)

Event Time Altitude Azimuth Distance (km) Brightness Sun altitude
Rises 23:44:09 0° 9° (N) 2,868 7.2 -14.1°
Reaches altitude 10° 23:46:30 10° 18° (NNE) 1,969 6.2 -14.6°
Maximum altitude 23:50:30 35° 85° (E) 992 4.1 -15.5°
Enters shadow 23:52:00 27° 125° (SE) 1,181 4.4 -15.9°
